Location: D�derode
(51.8092°N, 10.1065°E)
Time: 20:59:48
(UTC+00:00)

Cosmos 1980 Rocket - Pass Details

Date: 01 December 2020
Orbit: 828 x 851 km, 71.0° (Epoch: 25 January)

Event Time Altitude Azimuth Distance (km) Brightness Sun altitude
Rises 17:40:09 0° 325° (NW) 3,384 5.7 -21.8°
Reaches altitude 10° 17:44:00 10° 351° (N) 2,451 4.6 -22.4°
Enters shadow 17:46:08 13° 13° (NNE) 2,214 4.2 -22.7°
